When you browse on this site, cookies collect data to enhance your experience and personalize the content and advertising you see.
Visit our Privacy Policy to learn more. By continuing to use the site, you agree to this use of cookies and data.
  • en France
  • Liste des pays
  • À 7 jours
  • Température de l'eau
  • Carte météo
  • Widgets météo
  • user-avatar
    Se connecter

    Météo par heure à Bijeljina

    Ce jour, 21 Février, Vendredi

    Heure Température Précipitation Vent Pression Humidité
    00:00 +5°C° 0 mm 1 m/s 760 mmHg 73%
    01:00 +4°C° 0 mm 1 m/s 760 mmHg 74%
    02:00 +4°C° 0 mm 1 m/s 760 mmHg 74%
    03:00 +4°C° 0 mm 1 m/s 760 mmHg 75%
    04:00 +4°C° 0 mm 1 m/s 760 mmHg 75%
    05:00 +3°C° 0 mm 1 m/s 760 mmHg 75%
    06:00 +2°C° 0 mm 2 m/s 759 mmHg 75%
    07:00 +2°C° 0 mm 2 m/s 759 mmHg 76%
    14:00 +10°C° 0 mm 2 m/s 760 mmHg 46%
    15:00 +9°C° 0 mm 3 m/s 761 mmHg 53%
    16:00 +8°C° 0 mm 3 m/s 761 mmHg 59%
    17:00 +7°C° 0 mm 3 m/s 762 mmHg 60%
    18:00 +7°C° 0 mm 3 m/s 762 mmHg 61%
    19:00 +6°C° 0 mm 2 m/s 763 mmHg 61%
    20:00 +5°C° 0 mm 2 m/s 763 mmHg 61%
    21:00 +5°C° 0 mm 2 m/s 763 mmHg 62%
    22:00 +4°C° 0 mm 2 m/s 763 mmHg 62%
    23:00 +4°C° 0 mm 2 m/s 764 mmHg 63%

    Demain, 22 Février, Samedi

    Heure Température Précipitation Vent Pression Humidité
    00:00 +3°C° 0 mm 2 m/s 764 mmHg 65%
    01:00 +3°C° 0 mm 2 m/s 764 mmHg 66%
    02:00 +2°C° 0 mm 2 m/s 764 mmHg 68%
    03:00 +2°C° 0 mm 2 m/s 764 mmHg 69%
    04:00 +2°C° 0 mm 2 m/s 764 mmHg 71%
    05:00 +2°C° 0 mm 2 m/s 765 mmHg 72%
    06:00 +1°C° 0 mm 2 m/s 765 mmHg 73%
    07:00 +1°C° 0 mm 2 m/s 765 mmHg 74%
    08:00 +3°C° 0 mm 2 m/s 765 mmHg 67%
    09:00 +5°C° 0 mm 2 m/s 766 mmHg 61%
    10:00 +6°C° 0 mm 2 m/s 766 mmHg 55%
    11:00 +7°C° 0 mm 2 m/s 765 mmHg 51%
    12:00 +8°C° 0 mm 2 m/s 765 mmHg 48%
    13:00 +9°C° 0 mm 2 m/s 765 mmHg 44%
    14:00 +10°C° 0 mm 1 m/s 764 mmHg 44%
    15:00 +10°C° 0 mm 1 m/s 764 mmHg 44%
    16:00 +10°C° 0 mm 1 m/s 763 mmHg 44%
    17:00 +9°C° 0 mm 1 m/s 764 mmHg 48%
    18:00 +8°C° 0 mm 1 m/s 764 mmHg 52%
    19:00 +7°C° 0 mm 1 m/s 764 mmHg 56%
    20:00 +7°C° 0 mm 1 m/s 764 mmHg 57%
    21:00 +6°C° 0 mm 2 m/s 763 mmHg 58%
    22:00 +4°C° 0 mm 3 m/s 763 mmHg 59%
    23:00 +5°C° 0 mm 2 m/s 763 mmHg 60%

    Après-demain, 23 Février, Dimanche

    Heure Température Précipitation Vent Pression Humidité
    00:00 +5°C° 0 mm 2 m/s 763 mmHg 60%
    01:00 +5°C° 0 mm 2 m/s 762 mmHg 61%
    02:00 +5°C° 0 mm 2 m/s 762 mmHg 60%
    03:00 +5°C° 0 mm 2 m/s 761 mmHg 59%
    04:00 +5°C° 0 mm 2 m/s 761 mmHg 58%
    05:00 +6°C° 0 mm 1 m/s 761 mmHg 59%
    06:00 +6°C° 0 mm 1 m/s 761 mmHg 60%
    07:00 +4°C° 0 mm 0 m/s 761 mmHg 62%
    08:00 +7°C° 0 mm 1 m/s 761 mmHg 56%
    09:00 +9°C° 0 mm 1 m/s 761 mmHg 51%
    10:00 +11°C° 0 mm 1 m/s 761 mmHg 45%
    11:00 +12°C° 0 mm 1 m/s 761 mmHg 43%
    12:00 +13°C° 0 mm 1 m/s 761 mmHg 41%
    13:00 +15°C° 0 mm 2 m/s 760 mmHg 39%
    14:00 +15°C° 0 mm 2 m/s 759 mmHg 42%
    15:00 +15°C° 0 mm 2 m/s 759 mmHg 45%
    16:00 +15°C° 0 mm 2 m/s 758 mmHg 48%
    17:00 +14°C° 0 mm 1 m/s 758 mmHg 51%
    18:00 +13°C° 0 mm 1 m/s 758 mmHg 53%
    19:00 +11°C° 0 mm 1 m/s 758 mmHg 55%
    20:00 +11°C° 0 mm 1 m/s 757 mmHg 57%
    21:00 +11°C° 0 mm 1 m/s 757 mmHg 58%
    22:00 +9°C° 0 mm 2 m/s 757 mmHg 60%
    23:00 +9°C° 0 mm 2 m/s 756 mmHg 61%

    24 Février, Lundi

    Heure Température Précipitation Vent Pression Humidité
    00:00 +9°C° 0 mm 2 m/s 756 mmHg 62%
    01:00 +9°C° 0 mm 2 m/s 755 mmHg 63%
    02:00 +9°C° 0 mm 2 m/s 755 mmHg 65%
    03:00 +8°C° 0 mm 3 m/s 755 mmHg 66%
    04:00 +8°C° 0 mm 3 m/s 755 mmHg 68%
    05:00 +8°C° 0 mm 3 m/s 756 mmHg 70%
    06:00 +7°C° 0 mm 4 m/s 757 mmHg 73%
    07:00 +7°C° 0 mm 4 m/s 758 mmHg 76%
    08:00 +7°C° 0.4 mm 4 m/s 759 mmHg 75%
    09:00 +6°C° 0.4 mm 4 m/s 760 mmHg 74%
    10:00 +5°C° 0.4 mm 3 m/s 761 mmHg 74%
    11:00 +6°C° 0 mm 4 m/s 761 mmHg 66%
    12:00 +8°C° 0 mm 4 m/s 761 mmHg 59%
    13:00 +10°C° 0 mm 4 m/s 761 mmHg 52%
    14:00 +10°C° 0 mm 4 m/s 761 mmHg 52%
    15:00 +10°C° 0 mm 4 m/s 761 mmHg 51%
    16:00 +10°C° 0 mm 4 m/s 761 mmHg 51%
    17:00 +8°C° 0 mm 4 m/s 761 mmHg 56%
    18:00 +7°C° 0 mm 3 m/s 762 mmHg 61%
    19:00 +6°C° 0 mm 2 m/s 762 mmHg 66%
    20:00 +6°C° 0 mm 2 m/s 762 mmHg 67%
    21:00 +6°C° 0 mm 1 m/s 762 mmHg 68%
    22:00 +6°C° 0 mm 1 m/s 762 mmHg 69%
    23:00 +6°C° 0 mm 1 m/s 762 mmHg 69%

    25 Février, Mardi

    Heure Température Précipitation Vent Pression Humidité
    00:00 +5°C° 0 mm 1 m/s 761 mmHg 70%
    01:00 +5°C° 0 mm 1 m/s 761 mmHg 71%
    02:00 +5°C° 0 mm 1 m/s 761 mmHg 71%
    03:00 +5°C° 0 mm 1 m/s 760 mmHg 70%
    04:00 +3°C° 0 mm 2 m/s 760 mmHg 70%
    05:00 +3°C° 0 mm 2 m/s 759 mmHg 70%
    06:00 +3°C° 0 mm 2 m/s 759 mmHg 69%
    07:00 +3°C° 0 mm 2 m/s 758 mmHg 68%
    08:00 +5°C° 0 mm 2 m/s 758 mmHg 62%
    09:00 +8°C° 0 mm 2 m/s 757 mmHg 55%
    10:00 +10°C° 0 mm 3 m/s 757 mmHg 48%
    11:00 +12°C° 0 mm 2 m/s 756 mmHg 44%
    12:00 +13°C° 0 mm 2 m/s 756 mmHg 41%
    13:00 +15°C° 0 mm 2 m/s 755 mmHg 37%
    14:00 +15°C° 0 mm 1 m/s 754 mmHg 40%
    15:00 +14°C° 0 mm 1 m/s 754 mmHg 43%
    16:00 +14°C° 0 mm 1 m/s 753 mmHg 46%
    17:00 +12°C° 0 mm 0 m/s 753 mmHg 48%
    18:00 +11°C° 0 mm 0 m/s 753 mmHg 51%
    19:00 +10°C° 0 mm 0 m/s 753 mmHg 54%
    20:00 +9°C° 0 mm 0 m/s 753 mmHg 56%
    21:00 +10°C° 0 mm 1 m/s 753 mmHg 57%
    22:00 +10°C° 0 mm 1 m/s 753 mmHg 59%
    23:00 +10°C° 0 mm 1 m/s 752 mmHg 62%

    26 Février, Mercredi

    Heure Température Précipitation Vent Pression Humidité
    00:00 +9°C° 0 mm 2 m/s 752 mmHg 64%
    01:00 +8°C° 0 mm 2 m/s 751 mmHg 66%
    02:00 +8°C° 0 mm 2 m/s 751 mmHg 67%
    03:00 +8°C° 0 mm 2 m/s 750 mmHg 68%
    04:00 +8°C° 0 mm 2 m/s 750 mmHg 69%
    05:00 +8°C° 0 mm 2 m/s 749 mmHg 70%
    06:00 +9°C° 0 mm 1 m/s 749 mmHg 71%
    07:00 +9°C° 0 mm 1 m/s 749 mmHg 73%
    08:00 +10°C° 0 mm 1 m/s 748 mmHg 70%
    09:00 +12°C° 0 mm 1 m/s 748 mmHg 67%
    10:00 +13°C° 0 mm 1 m/s 748 mmHg 64%
    11:00 +11°C° 0.7 mm 3 m/s 748 mmHg 69%
    12:00 +11°C° 0.7 mm 4 m/s 748 mmHg 74%
    13:00 +9°C° 0.7 mm 6 m/s 747 mmHg 79%
    14:00 +8°C° 2.5 mm 6 m/s 748 mmHg 83%
    15:00 +5°C° 2.5 mm 6 m/s 748 mmHg 87%
    16:00 +3°C° 2.5 mm 6 m/s 749 mmHg 91%
    17:00 +5°C° 0.4 mm 5 m/s 750 mmHg 87%
    18:00 +5°C° 0.4 mm 4 m/s 751 mmHg 84%
    19:00 +5°C° 0.4 mm 3 m/s 752 mmHg 81%
    20:00 +5°C° 0 mm 3 m/s 753 mmHg 81%
    21:00 +4°C° 0 mm 3 m/s 754 mmHg 81%
    22:00 +4°C° 0 mm 3 m/s 754 mmHg 81%
    23:00 +3°C° 0 mm 3 m/s 755 mmHg 81%
    Voir plus